Hoquiam, WA
on Tuesday, December 4, 2012

Tuesday
Previous Day Next Day
Daily Summary
 ActualAverageRecord
Temperature
Mean Temperature °F 42°F  
Max Temperature 54°F 47°F 57°F (1989)
Min Temperature 46°F 37°F 24°F (1972)
Degree Days
Heating Degree Days 15 23  
Month to date heating degree days 90  
Cooling Degree Days 0 0  
Month to date cooling degree days 0  
Year to date cooling degree days 23  
Moisture
Dew Point 46°F   
Average Humidity 88    
Maximum Humidity 97    
Minimum Humidity 71    
Precipitation
Precipitation 0.62 in 0.33 in 2.30 in (1990)
Month to date precipitation 1.38  
Year to date precipitation 58.97  
Wind
Wind Speed 18 mph   
Max Wind Speed 33 mph   
Max Gust Speed 44 mph   
Visibility 7 miles   
Events Rain   

Key: T is trace of precipitation, MM is missing value
Source: NWS Daily Summary
Time(PST)TemperatureDew PointHumidity Pressure Visibility Wind DirectionWind SpeedGust SpeedPrecipitationEvents Conditions
12:53 AM 48.0°F 45.0°F 89% 29.49 in 6.0 miles East 18.4 mph - 0.19 in Rain Light Rain
1:19 AM 46.4°F 44.6°F 93% 29.47 in 6.0 miles ENE 15.0 mph 24.2 mph 0.02 in Rain Light Rain
1:53 AM 46.0°F 45.0°F 96% 29.48 in 3.0 miles East 17.3 mph 23.0 mph 0.03 in Rain Light Rain
2:53 AM 46.9°F 46.0°F 97% 29.50 in 3.0 miles East 11.5 mph - 0.03 in Rain Light Rain
3:23 AM 53.6°F 51.8°F 94% 29.50 in 5.0 miles South 21.9 mph 29.9 mph 0.01 in   Overcast
3:43 AM 53.6°F 51.8°F 94% 29.52 in 2.5 miles South 24.2 mph 33.4 mph 0.02 in   Overcast
3:53 AM 54.0°F 52.0°F 93% 29.55 in 4.0 miles SSW 31.1 mph 40.3 mph 0.02 in   Overcast
4:51 AM 53.6°F 51.8°F 94% 29.57 in 6.0 miles SSW 21.9 mph 32.2 mph N/A   Overcast
4:53 AM 53.1°F 51.1°F 93% 29.58 in 6.0 miles SSW 24.2 mph - N/A   Overcast
5:53 AM 53.1°F 50.0°F 89% 29.64 in 10.0 miles SSW 21.9 mph - N/A   Overcast
6:06 AM 51.8°F 48.2°F 88% 29.64 in 10.0 miles SSW 19.6 mph - N/A   Overcast
6:53 AM 52.0°F 46.9°F 83% 29.68 in 10.0 miles SW 16.1 mph 24.2 mph 0.00 in   Overcast
7:53 AM 50.0°F 45.0°F 83% 29.72 in 10.0 miles SW 12.7 mph - N/A   Scattered Clouds
8:53 AM 50.0°F 46.0°F 86% 29.74 in 10.0 miles South 8.1 mph - N/A   Mostly Cloudy
9:53 AM 48.9°F 46.9°F 93% 29.78 in 10.0 miles South 8.1 mph - 0.02 in   Mostly Cloudy
10:53 AM 50.0°F 48.0°F 93% 29.78 in 10.0 miles SSE 5.8 mph - N/A   Overcast
11:53 AM 52.0°F 46.9°F 83% 29.77 in 10.0 miles South 11.5 mph - N/A   Overcast
12:53 PM 48.9°F 46.0°F 90% 29.77 in 6.0 miles South 12.7 mph - 0.02 in Rain Light Rain
1:53 PM 48.9°F 45.0°F 86% 29.77 in 10.0 miles South 12.7 mph - 0.02 in Rain Light Rain
2:53 PM 50.0°F 44.1°F 80% 29.75 in 10.0 miles South 17.3 mph - 0.00 in   Mostly Cloudy
3:53 PM 50.0°F 45.0°F 83% 29.74 in 10.0 miles SSW 8.1 mph - N/A   Overcast
4:22 PM 48.2°F 46.4°F 93% 29.74 in 5.0 miles SW 13.8 mph 17.3 mph 0.04 in Rain Light Rain
4:32 PM 46.4°F 42.8°F 87% 29.73 in 2.0 miles SW 19.6 mph 25.3 mph 0.16 in Rain Light Rain
4:41 PM 48.2°F 44.6°F 87% 29.74 in 3.0 miles SSW 33.4 mph 43.7 mph 0.22 in Rain Light Rain
4:48 PM 46.4°F 44.6°F 93% 29.75 in 2.5 miles SW 20.7 mph 43.7 mph 0.24 in Rain Light Rain
4:53 PM 46.9°F 45.0°F 93% 29.75 in 5.0 miles SSW 18.4 mph - 0.25 in Rain Light Rain
5:53 PM 46.9°F 45.0°F 93% 29.75 in 10.0 miles South 13.8 mph - 0.01 in   Overcast
6:53 PM 50.0°F 45.0°F 83% 29.75 in 10.0 miles SSW 18.4 mph 24.2 mph N/A   Overcast
7:53 PM 50.0°F 43.0°F 77% 29.77 in 9.0 miles SW 20.7 mph 28.8 mph N/A   Overcast
8:53 PM 48.0°F 42.1°F 80% 29.81 in 10.0 miles SW 17.3 mph - 0.00 in   Mostly Cloudy
9:53 PM 48.0°F 41.0°F 77% 29.83 in 8.0 miles West 26.5 mph 31.1 mph 0.01 in Rain Light Rain
10:53 PM 46.9°F 39.0°F 74% 29.87 in 10.0 miles SW 24.2 mph 28.8 mph 0.01 in   Mostly Cloudy
11:53 PM 46.9°F 37.9°F 71% 29.91 in 9.0 miles SW 28.8 mph 39.1 mph 0.01 in   Overcast
Moon Phase
Dec. 04 Dec. 06 Dec. 13 Dec. 20 Dec. 28
Sunrise:07:44 AM (PST) Moon Rise:10:36 PM (PST)12/4
Sunset:04:27 PM (PST) Moon Set:11:28 AM (PST)12/4

Copyright © 2014 The Weather Underground, Inc.